Regional Weather Roundup
Issued by NWS

Home | Current Version | Previous Version | Text Only | Print | Product List | Glossary Off
Versions: 1 2 3 4 5 6 7 8 9 10 11 12 13 14 15 16 17 18 19 20 21 22 23 24 25 26 27 28 29 30 31 32 33 34 35 36 37 38 39 40 41 42 43 44 45 46 47 48 49 50

000
ASUS43 KLMK 281710
RWRKY
KENTUCKY REGIONAL WEATHER ROUNDUP
NATIONAL WEATHER SERVICE LOUISVILLE KY
1200 PM EST SUN DEC 28 2014

NOTE "FAIR" INDICATES FEW OR NO CLOUDS BELOW 12,000 FEET
WITH NO SIGNIFICANT WEATHER AND/OR OBSTRUCTIONS TO VISIBILITY.

KYZ001>023-026-027-061>063-070>075-281800-
WESTERN AND SOUTH CENTRAL KENTUCKY

CITY           SKY/WX    TMP DP  RH WIND       PRES   REMARKS
PADUCAH        CLOUDY    35  30  82 N7        30.22S WCI  29
HENDERSON      CLOUDY    34  27  75 NW7       30.22S WCI  28
OWENSBORO      CLOUDY    35  31  86 N6        30.20F WCI  30
HOPKINSVILLE   CLOUDY    37  35  92 N6        30.19S WCI  33
BOWLING GREEN  CLOUDY    40  35  83 CALM      30.17F
GLASGOW        CLOUDY    39  39 100 CALM      30.16F FOG
$$

KYZ024-025-028>034-038-045-046-053-281800-
NORTH CENTRAL KENTUCKY

CITY           SKY/WX    TMP DP  RH WIND       PRES   REMARKS
LOUISVILLE/SDF CLOUDY    37  33  85 N12       30.17S WCI  29
LOUISVILLE/LOU CLOUDY    37  32  82 N8        30.18F WCI  31
FORT KNOX      CLOUDY    37  34  90 NW6       30.15R WCI  32
$$

KYZ035>037-039>044-047>052-055>060-089>105-281800-
NORTHEAST KENTUCKY

CITY           SKY/WX    TMP DP  RH WIND       PRES   REMARKS
LEXINGTON      CLOUDY    37  37 100 NW6       30.14F FOG     WCI  32
COVINGTON      CLOUDY    35  27  72 N9        30.15S WCI  28
FRANKFORT      CLOUDY    36  35  96 NW7       30.13F WCI  30
$$

KYZ054-064>069-076>088-106>120-281800-
SOUTHEAST KENTUCKY

CITY           SKY/WX    TMP DP  RH WIND       PRES   REMARKS
JACKSON        LGT RAIN  42  40  92 VRB6      30.09R
LONDON         LGT RAIN  45  40  82 N9        30.10F
SOMERSET       DRIZZLE   41  41 100 N5        30.12F
MIDDLESBORO    DRIZZLE   49  49  99 CALM      30.08F
MONTICELLO     LGT RAIN  44  43  97 N6        30.14F
$$




USA.gov is the U.S. government's official web portal to all federal, state and local government web resources and services.